Tracking 29892 objects as of 21-Nov-2024
HD Live streaming from Space Station
objects crossing your sky now

STARLINK-3997

Track STARLINK-3997 now!
10-day predictions
STARLINK-3997 is classified as:


NORAD ID: 52609
Int'l Code: 2022-052M
Perigee: 545.9 km
Apogee: 548.0 km
Inclination: 53.2 °
Period: 95.4 minutes
Semi major axis: 6917 km
RCS: Unknown
Launch date: May 14, 2022
Source: United States (US)
Launch site: AIR FORCE EASTERN TEST RANGE (AFETR)
Your satellite tracking list
Your tracking list is empty




NASA's NSSDC Master Catalog

Two Line Element Set (TLE):
1 52609U 22052M   24325.81849390  .00005132  00000-0  34050-3 0  9997
2 52609  53.2170 246.3574 0001549  85.4923 274.6246 15.08820825139321
Source of the keplerian elements: AFSPC